This is the latest recevied weather packets stored in our database for station/object KC0SIQ-13. If no packets are shown the sender has not sent any weather packets the latest 10 day(s).
| Time | Temp. | Humidity | Pressure | Rain* | Wind** | Luminosity | Snow |
|---|---|---|---|---|---|---|---|
| 1777795735 | 7.22° C | 47% | 1013.7 hPa | 0 mm | - | 0 W/m² | - |
| 1777795432 | 7.22° C | 46% | 1014 hPa | 0 mm | - | 0 W/m² | - |
| 1777795129 | 7.78° C | 44% | 1013.7 hPa | 0 mm | - | 0 W/m² | - |
| 1777794824 | 8.33° C | 43% | 1013.9 hPa | 0 mm | - | 0 W/m² | - |
| 1777794521 | 7.78° C | 43% | 1013.8 hPa | 0 mm | - | 0 W/m² | - |
| 1777794216 | 8.33° C | 42% | 1014.1 hPa | 0 mm | - | 0 W/m² | - |
| 1777793913 | 8.89° C | 41% | 1014.1 hPa | 0 mm | - | 0 W/m² | - |
| 1777793611 | 8.89° C | 40% | 1014.5 hPa | 0 mm | - | 0 W/m² | - |
| 1777793309 | 8.89° C | 41% | 1014 hPa | 0 mm | - | 0 W/m² | - |
| 1777793006 | 8.89° C | 41% | 1014.4 hPa | 0 mm | - | 0 W/m² | - |
| 1777792702 | 9.44° C | 40% | 1014.6 hPa | 0 mm | - | 0 W/m² | - |
| 1777792400 | 9.44° C | 38% | 1014.6 hPa | 0 mm | - | 0 W/m² | - |
| 1777792095 | 9.44° C | 39% | 1014.7 hPa | 0 mm | - | 0 W/m² | - |
| 1777791794 | 10° C | 38% | 1014.7 hPa | 0 mm | - | 0 W/m² | - |
| 1777791492 | 10° C | 37% | 1014.8 hPa | 0 mm | - | 0 W/m² | - |
| 1777791189 | 10° C | 37% | 1014.7 hPa | 0 mm | - | 0 W/m² | - |
| 1777790886 | 10° C | 36% | 1014.5 hPa | 0 mm | - | 0 W/m² | - |
| 1777790583 | 10° C | 36% | 1014.6 hPa | 0 mm | - | 0 W/m² | - |
| 1777790280 | 10° C | 37% | 1014.6 hPa | 0 mm | - | 0 W/m² | - |
| 1777789979 | 10.56° C | 35% | 1014.5 hPa | 0 mm | - | 0 W/m² | - |
| 1777789676 | 10.56° C | 35% | 1014.7 hPa | 0 mm | - | 0 W/m² | - |
| 1777789375 | 10.56° C | 34% | 1014.7 hPa | 0 mm | - | 0 W/m² | - |
| 1777789072 | 10.56° C | 35% | 1014.8 hPa | 0 mm | - | 0 W/m² | - |
| 1777788768 | 10° C | 36% | 1014.9 hPa | 0 mm | - | 0 W/m² | - |
| 1777788459 | 10° C | 38% | 1014.9 hPa | 0 mm | - | 0 W/m² | - |
* Rain latest hour (hover to see other rain measurements)
** Current wind speed in m/s (hover to see current wind gust speed)